P/2020 X1 ( ATLAS )

Japanese version
Home page
Updated on February 20, 2021

---------------------------------------------------------------------

* Profile

Discovery Date December 4, 2020
Magnitude 18.9 mag
Discoverer Asteroid Terrestrial-Impact Last Alert System (ATLAS) search program

* Pictures

* Orbital Elements

Epoch 2020 July 10.0 TT = JDT 2459040.5
T 2020 July 21.35737 TT                                 Rudenko
q   2.8733701            (2000.0)            P               Q
n   0.10258100     Peri.  323.50934     +0.86890312     -0.23517980
a   4.5195107      Node    56.03416     +0.47656231     +0.63528507
e   0.3642298      Incl.   31.67826     -0.13377491     +0.73559727
P   9.61
From 88 observations 2020 Dec. 1-18, mean residual 0".5.

* Magnitudes Graph

        m1 = 12.0 + 5 log d + 10.0 log r

---------------------------------------------------------------------

The orbital elements are published on M.P.E.C. 2021-B143.
The magnitudes graphs are made with Comet for Windows.

---------------------------------------------------------------------

Copyright(C) Seiichi Yoshida (comet@aerith.net). All rights reserved.